EW6791 Weather Reports


Display with metric or nautical units.
time (UTC)temp
F
wind
direction
speed
MPH
gust
MPH
rain 1hr
in
rain 24hr
in
rain mn
in
humidity
%
barometer
mb
20260831041506 68 339 0.0 0.0 0.00 0.00 0.00 79 1013.8
20260831040018 68 339 0.0 0.0 0.00 0.00 0.00 79 1013.9
20260831034502 68 339 0.0 0.0 0.00 0.00 0.00 79 1013.9
20260831033003 68 32 0.0 0.0 0.00 0.00 0.00 79 1013.8
20260831031501 68 31 0.0 0.0 0.00 0.00 0.00 79 1014.0
20260831030104 68 11 0.0 0.0 0.00 0.00 0.00 79 1013.9
20260831024559 68 27 0.0 0.0 0.00 0.00 0.00 79 1013.9
20260831023058 68 27 0.0 0.0 0.00 0.00 0.00 79 1013.7
20260831021559 67 354 0.0 0.0 0.00 0.00 0.00 79 1013.6
20260831020058 67 352 0.0 0.0 0.00 0.00 0.00 79 1013.5
20260831014558 67 352 0.0 0.0 0.00 0.00 0.00 79 1013.5
20260831013057 67 352 0.0 0.0 0.00 0.00 0.00 79 1013.5
20260831011556 67 352 0.0 0.0 0.00 0.00 0.00 79 1013.4
20260831010100 67 352 0.0 0.0 0.00 0.00 0.00 79 1013.5
20260831004555 67 352 0.0 0.0 0.00 0.00 0.00 79 1013.5
20260831003053 67 351 0.0 0.0 0.00 0.00 0.00 79 1013.6
20260831001552 67 351 0.0 0.0 0.00 0.00 0.00 79 1013.6
20260831000059 67 351 0.0 0.0 0.00 0.00 0.00 79 1013.8
20260830234557 67 13 0.0 0.0 0.00 0.00 0.00 79 1013.8
20260830233059 67 351 0.0 0.0 0.00 0.00 0.00 79 1013.9
20260830231550 67 13 0.0 0.0 0.00 0.00 0.00 79 1013.9
20260830230048 67 8 0.0 0.0 0.00 0.00 0.00 79 1014.0
20260830224548 67 37 0.0 0.0 0.00 0.00 0.00 79 1013.9
20260830223049 67 4 0.0 0.0 0.00 0.00 0.00 78 1014.1
20260830221550 67 4 0.0 0.0 0.00 0.00 0.00 78 1014.3
20260830220059 67 4 0.0 0.0 0.00 0.00 0.00 78 1014.1
20260830214546 67 73 0.0 1.0 0.00 0.00 0.00 78 1014.3
20260830213045 68 6 0.0 1.0 0.00 0.00 0.00 78 1014.3
20260830211549 68 353 0.0 1.0 0.00 0.00 0.00 78 1014.2
20260830210048 68 18 0.0 0.0 0.00 0.00 0.00 78 1014.2
20260830204555 68 22 0.0 0.0 0.00 0.00 0.00 78 1014.0
20260830203042 67 14 0.0 0.0 0.00 0.00 0.00 78 1014.2
20260830201555 67 14 0.0 0.0 0.00 0.00 0.00 79 1014.3
20260830200044 67 5 0.0 0.0 0.00 0.00 0.00 79 1014.2
20260830194541 67 6 0.0 0.0 0.00 0.00 0.00 79 1014.6
20260830193038 66 6 0.0 0.0 0.00 0.00 0.00 79 1014.6
20260830191613 66 6 0.0 1.0 0.00 0.00 0.00 79 1014.7
20260830190052 66 347 0.0 1.0 0.00 0.00 0.00 79 1014.7
20260830184538 66 349 0.0 1.0 0.00 0.00 0.00 79 1014.8
20260830183035 66 278 0.0 2.0 0.00 0.00 0.00 79 1014.8
20260830181534 66 7 0.0 0.0 0.00 0.00 0.00 79 1014.8
20260830180037 66 304 0.0 0.0 0.00 0.00 0.00 79 1014.8
20260830174535 66 70 0.0 0.0 0.00 0.00 0.00 79 1014.7
20260830173032 66 352 0.0 1.0 0.00 0.00 0.00 79 1014.9
20260830171532 65 347 0.0 1.0 0.00 0.00 0.00 79 1014.9
20260830170031 65 341 0.0 1.0 0.00 0.00 0.00 79 1014.9
20260830164529 65 357 0.0 0.0 0.00 0.00 0.00 79 1015.2
20260830163038 65 114 0.0 0.0 0.00 0.00 0.00 79 1015.4
20260830161528 65 20 0.0 0.0 0.00 0.00 0.00 79 1015.5
20260830160036 65 47 0.0 0.0 0.00 0.00 0.00 79 1015.6
20260830154527 64 11 0.0 0.0 0.00 0.00 0.00 79 1015.5
20260830153026 64 11 0.0 0.0 0.00 0.00 0.00 78 1015.8
20260830151526 64 62 0.0 1.0 0.00 0.00 0.00 78 1016.1
20260830150025 64 81 0.0 1.0 0.00 0.00 0.00 78 1016.1
20260830144525 64 15 0.0 3.0 0.00 0.00 0.00 78 1016.0
20260830143024 64 295 0.0 1.0 0.00 0.00 0.00 78 1015.8
20260830141523 64 20 0.0 2.0 0.00 0.00 0.00 77 1015.7
20260830140023 64 262 0.0 2.0 0.00 0.00 0.00 77 1015.8
20260830134523 64 77 0.0 3.0 0.00 0.00 0.00 77 1015.7
20260830133022 64 334 0.0 1.0 0.00 0.00 0.00 77 1015.7
20260830131540 64 359 0.0 1.0 0.00 0.00 0.00 77 1016.0
20260830130021 64 35 0.0 1.0 0.00 0.00 0.00 77 1016.1
20260830124520 64 23 0.0 1.0 0.00 0.00 0.00 77 1016.0
20260830123019 63 11 0.0 0.0 0.00 0.00 0.00 77 1015.9
20260830121520 63 336 0.0 0.0 0.00 0.00 0.00 77 1016.0
20260830120017 63 336 0.0 0.0 0.00 0.00 0.00 77 1015.9
20260830114518 63 317 0.0 1.0 0.00 0.00 0.00 77 1015.6
20260830113019 63 191 0.0 1.0 0.00 0.00 0.00 77 1015.4
20260830111524 63 191 0.0 0.0 0.00 0.00 0.00 78 1015.3
20260830110015 63 211 0.0 1.0 0.00 0.00 0.00 78 1015.4
20260830104514 63 3 0.0 0.0 0.00 0.00 0.00 78 1015.1
20260830103013 63 37 0.0 0.0 0.00 0.00 0.00 78 1015.2
20260830101510 63 21 0.0 0.0 0.00 0.00 0.00 78 1015.8
20260830100010 63 1 0.0 0.0 0.00 0.00 0.00 78 1015.7
20260830094509 63 319 0.0 0.0 0.00 0.00 0.00 78 1015.7
20260830093008 63 319 0.0 0.0 0.00 0.00 0.00 77 1016.0
20260830091512 63 319 0.0 0.0 0.00 0.00 0.00 77 1016.1
20260830090002 63 345 0.0 0.0 0.00 0.00 0.00 77 1016.3
20260830084502 63 39 0.0 0.0 0.00 0.00 0.00 77 1016.4
20260830083001 64 34 0.0 0.0 0.00 0.00 0.00 77 1016.4
20260830081558 64 46 0.0 0.0 0.00 0.00 0.00 77 1016.8
20260830080058 64 96 0.0 0.0 0.00 0.00 0.00 77 1016.9
20260830074557 64 96 0.0 0.0 0.00 0.00 0.00 77 1016.8
20260830073056 64 96 0.0 0.0 0.00 0.00 0.00 77 1016.9
20260830071607 64 98 0.0 0.0 0.00 0.00 0.00 76 1017.0
20260830070109 64 98 0.0 0.0 0.00 0.00 0.00 75 1017.1
20260830064553 64 98 0.0 0.0 0.00 0.00 0.00 74 1016.9
20260830063054 64 97 0.0 0.0 0.00 0.00 0.00 72 1017.1
20260830061549 64 97 0.0 0.0 0.00 0.00 0.00 70 1017.4
20260830060053 64 97 0.0 0.0 0.00 0.00 0.00 67 1017.5
20260830054545 65 99 0.0 0.0 0.00 0.00 0.00 63 1017.7
20260830053043 65 100 0.0 0.0 0.00 0.00 0.00 61 1017.7
20260830051545 66 68 0.0 0.0 0.00 0.00 0.00 61 1017.8
20260830050040 66 70 0.0 1.0 0.00 0.00 0.00 62 1017.4
20260830044545 67 53 0.0 3.0 0.00 0.00 0.00 62 1017.6
20260830043032 69 74 0.0 3.0 0.00 0.00 0.00 59 1017.6